sat.trackr.live / text

‹ back to catalog

SKYKRAFT-4D

NORAD 64898 · 2025-154K

PAYLOAD ACTIVE UNKNOWN

§ Identity

Operator
Country
AUS
Launch date
2025-07-23
Launch site
AFWTR
Launch vehicle
Mass (kg)
RCS (m²)

External: N2YO · Heavens-Above · Gunter

§ Orbital elements

Epoch: 2026-05-25T02:26:33.315072Z

Period
96.26 min
Inclination
97.6679°
Eccentricity
0.0003733
Mean motion
14.95906845 rev/d
Perigee alt
577.0 km
Apogee alt
582.2 km
Semi-major
6,957.7 km
B*
4.8052e-4
RAAN
209.7372°
Arg perigee
345.9178°
Mean anomaly
14.1938°
Rev number
4,384

§ Raw data

SKYKRAFT-4D1 64898U 25154K   26145.10177448  .00005322  00000+0  48052-3 0  99952 64898  97.6679 209.7372 0003733 345.9178  14.1938 14.95906845 43840

JSON: /api/v1/satellites/64898 · /tle

For live sub-satellite position, see the globe view (requires WebGL).

§ Visibility from observer

Set your observer location to see the next 7 days of passes ≥ 10°. The values pass through the URL so the page stays shareable.

No JS? Fill the form by hand. The geolocation button needs JavaScript.